Regional Weather Roundup
Issued by NWS Charleston, WV

Home | Current Version | Previous Version | Graphics & Text | Print | Product List | Glossary On
Versions: 1 2 3 4 5 6 7 8 9 10 11 12 13 14 15 16 17 18 19 20 21 22 23 24 25 26 27 28 29 30 31 32 33 34 35 36 37 38 39 40 41 42 43 44 45 46 47 48 49
000
ASUS41 KRLX 302010
RWRRLX
West Virginia Regional Weather Roundup
National Weather Service Charleston WV
400 PM EDT TUE SEP 30 2014

Note: "fair" indicates few or no clouds below 12,000 feet with no
significant weather and/or obstructions to visibility.

WVZ003-302100-
Northern Panhandle of West Virginia

CITY           SKY/WX    TMP DP  RH WIND       PRES   REMARKS
WHEELING       MOSUNNY   67  60  78 CALM      29.91S
$$

WVZ009-302100-
Northwest West Virginia

CITY           SKY/WX    TMP DP  RH WIND       PRES   REMARKS
PARKERSBURG    CLOUDY    64  61  90 NE3       29.92F
$$

WVZ006-302100-
Western West Virginia

CITY           SKY/WX    TMP DP  RH WIND       PRES   REMARKS
HUNTINGTON     MOSUNNY   77  55  46 SW6       29.87F
$$

WVZ015-302100-
West Central West Virginia

CITY           SKY/WX    TMP DP  RH WIND       PRES   REMARKS
CHARLESTON     MOSUNNY   81  54  39 SW8       29.87F
$$

WVZ031-302100-
North Central West Virginia

CITY           SKY/WX    TMP DP  RH WIND       PRES   REMARKS
CLARKSBURG     LGT RAIN  67  54  63 N15       29.92R
MORGANTOWN     TSTM      61  55  81 VRB3      29.95R
$$

WVZ035-042-045-302100-
South Central West Virginia

CITY           SKY/WX    TMP DP  RH WIND       PRES   REMARKS
BECKLEY        MOSUNNY   76  48  37 NW9       29.95S
BLUEFIELD      MOSUNNY   72  50  45 VRB3      29.98S
LEWISBURG      MOSUNNY   78  45  30 W5        29.93S
$$

WVZ047-302100-
Northern Mountains of West Virginia

CITY           SKY/WX    TMP DP  RH WIND       PRES   REMARKS
ELKINS         SUNNY     75  50  41 W9        29.91S
$$

WVZ052-302100-
Eastern Panhandle of West Virginia

CITY           SKY/WX    TMP DP  RH WIND       PRES   REMARKS
MARTINSBURG    SUNNY     75  59  57 SE9       29.87S
PETERSBURG     MOSUNNY  N/A N/A N/A CALM      29.84F
$$


USA.gov is the U.S. government's official web portal to all federal, state and local government web resources and services.